{"data":{"norad_id":52875,"epoch":"2026-09-19T13:53:36.103776Z","epoch_age_seconds":148384,"freshness":"FRESH","line1":"1 52875U 22062AX  26262.57889009  .00000895  00000+0  37642-4 0  9990","line2":"2 52875  53.1582 207.7196 0001473  93.0517 267.0655 15.34391186235557","mean_motion":15.34391186,"eccentricity":0.0001473,"inclination_deg":53.1582,"raan_deg":207.7196,"arg_perigee_deg":93.0517,"mean_anomaly_deg":267.0655,"bstar":3.7642e-5,"rev_number":23555,"period_min":93.84829717081,"perigee_km":461.72177777175,"apogee_km":463.7370970242,"semimajor_km":6840.866437398,"source":"CELESTRAK","updated_at":"2026-09-20T09:00:40.137051Z"}}